Showing default

COSMOS 2272, 23003

Orbit data source: Space-Track

COSMOS 2272, 23003 is a payload satellite owned by VKS (CIS) in LEO that was launched on Sat, 12 Feb 1994 UTC via a TSIKLON-3 launch vehicle from the Plesetsk Missile And Space Complex (PKMTR). Payload-class satellites include a variety of spacecraft equipped with specific instruments for various scientific and technological missions. These include communications satellites like Starlink; space stations such as the ISS; scientific satellites like the Hubble; Earth observation satellites from companies like Planet Labs, Umbra, and HawkEye 360; GPS; miniature CubeSats for education and research; and military/defense satellites.

Loading next visibility...
Identifier
23003, 1994-011E
Orbit
LEO
Country
Flag of CISCIS
Related business
Manufacturer
NPO PM
Mission
Defense Communications
Bus & Motor
STRELA-3, Unknown motor
Mass
225 kg wet, 225 kg dry
Launch date (UTC)
1994-02-12 (32 years ago)
Launch vehicle
TSIKLON-3
Launch site
Plesetsk Missile And Space Complex (PKMTR)
Object type
Payload
Rocket body
Debris
Shape & HBR
Cyl, 0.8 m
Radar Cross Section
1.257 m², Medium (>0.1 m² and < 1m²)

Expand to show TLE details & history
Last TLE update: 20 hours ago

TLE from 20 hours ago
0 COSMOS 2272
1 23003U 94011E   25257.55854861  .00000014  00000-0  19064-4 0  9995
2 23003  82.5678 108.0563 0012486  63.3420 296.8949 12.64391087457596
Epoch: 2025-09-14T13:24Z
TLE epoch observation values (Epoch: 2025-09-14T13:24:18.599Z)
Latitude
-0.00009°
Longitude
-86.79703°
Altitude
1,403.218 km
Speed
7.161 km/s
True Right ascension
07h 12m 13s
True Declination
0° 00' 00"
Sunlit
Object was in daylight at epoch
Visualization orbit readout
Latitude
Unknown
Longitude
Unknown
Altitude
Unknown
Speed
Unknown
Apparent Right ascension
Unknown
Apparent Declination
Unknown
Sunlit
N/A
Visualization observer readout
Local Sidereal Time
01:42:09
Azimuth
Unknown
Elevation
Unknown
Doppler factor
Unknown
Orbital elements
Apogee altitude
1,411.905 km
Perigee altitude
1,392.476 km
Semi-major axis
7,780.328 km
Eccentricity
0.00125
Inclination
82.5678°
RAAN
108.0563°
Arg. of periapsis
63.342°
True anomaly
296.76721°
Mean anomaly
296.8949°
Eccentric anomaly
296.83106°
Mean motion
3.16262 °/min
Orbital period
113.83 mins
BSTAR
0.000019064
Loading maneuver chart data...
Computing Atmospheric mass density...
Loading historical data...
Loading historical data...
Loading historical data...
Loading historical data...
Loading historical data...
Loading historical data...
Loading historical data...

Documentation

Showing up to 5 results
|